Location: *
(2.5500°S, 65.9667°W)
Time: 01:36:34
(UTC+00:00)

XW-2D - Visible Passes

Search period start: 30 June 2022 00:00
Search period end: 10 July 2022 00:00
Orbit: 498 x 514 km, 97.5° (Epoch: 29 June)

Date Brightness Start Highest point End Pass type
(mag) Time Alt. Az. Time Alt. Az. Time Alt. Az.
30 Jun ? 09:47:04 10° NNE 09:50:39 45° E 09:54:14 10° S visible
01 Jul ? 09:29:57 10° NE 09:32:58 23° ESE 09:35:57 10° SSE visible
01 Jul ? 22:54:14 10° SW 22:56:24 15° WSW 22:58:34 10° WNW visible
02 Jul ? 09:13:41 10° ENE 09:15:17 12° ESE 09:16:52 10° SE visible
05 Jul ? 09:52:03 10° NNE 09:55:41 55° ESE 09:59:20 10° S visible
06 Jul ? 09:34:46 10° NE 09:37:57 27° ESE 09:41:09 10° SSE visible
06 Jul ? 22:59:41 10° SW 23:01:22 13° WSW 23:03:03 10° WNW visible
07 Jul ? 09:18:07 10° ENE 09:20:14 15° ESE 09:22:20 10° SE visible
